This demonstration page uses our WeatherBlox Daily Observations layout. Learn more.

Left ArrowRight Arrow

39.08367, -84.50855

Hourly Observations for April 18, 2017

Temp ( °F °C ) Dew Point ( °F °C ) Humidity (%) Winds ( mph kmh ) Pressure ( in mb ) Visibility ( mi km ) Precip ( " mm )
12:53 am 00:53 Clear 51 10.6 49 9.4 92 92 Calm 30.19 1022 10 16.0934 0 0
1:53 am 01:53 Mostly Clear 50 10 49 9.4 96 96 Calm 30.19 1022 10 16.0934 0 0
2:53 am 02:53 Clear 48 8.9 48 8.9 100 100 Calm 30.2 1023 10 16.0934 0 0
3:53 am 03:53 Clear 48 8.9 48 8.9 100 100 Calm 30.21 1023 10 16.0934 0 0
4:53 am 04:53 Clear 47 8.3 47 8.3 100 100 Calm 30.22 1023 10 16.0934 0 0
5:08 am 05:08 Clear with Mist and Fog 46 8 46 8 100 100 Calm 30.21 1023 1.75 2.816345 0 0
5:18 am 05:18 Clear with Mist and Fog 46 8 46 8 100 100 Calm 30.21 1023 4 6.43736 0 0
5:53 am 05:53 Clear 46 7.8 46 7.8 100 100 Calm 30.22 1023 10 16.0934 0 0
6:53 am 06:53 Clear 44 6.7 44 6.7 100 100 Calm 30.23 1024 9 14.48406 0 0
7:53 am 07:53 Sunny 46 7.8 46 7.8 100 100 Calm 30.24 1024 10 16.0934 0 0
8:53 am 08:53 Sunny 57 13.9 50 10 78 78 NNE 5 7 30.24 1024 10 16.0934 0 0
9:53 am 09:53 Sunny 64 17.8 47 8.3 54 54 ENE 6 9 30.23 1024 10 16.0934 0 0
10:53 am 10:53 Sunny 69 20.6 40 4.4 35 35 ESE 13 20 30.23 1024 10 16.0934 0 0
11:53 am 11:53 Sunny 72 22.2 42 5.6 34 34 SE 9 15 30.2 1023 10 16.0934 0 0
12:53 pm 12:53 Sunny 73 22.8 46 7.8 38 38 SE 9 15 30.17 1022 10 16.0934 0 0
1:53 pm 13:53 Partly Cloudy 76 24.4 51 10.6 42 42 SSE 14 22 30.16 1021 10 16.0934 0 0
2:53 pm 14:53 Mostly Sunny 76 24.4 50 10 40 40 SSE 10 17 30.15 1021 10 16.0934 0 0
3:53 pm 15:53 Mostly Cloudy 78 25.6 53 11.7 42 42 ESE 13 20 30.12 1020 10 16.0934 0 0
4:53 pm 16:53 Cloudy 74 23.3 51 10.6 45 45 S 9 15 30.11 1020 10 16.0934 0 0
5:53 pm 17:53 Cloudy 73 22.8 54 12.2 51 51 S 10 17 30.09 1019 10 16.0934 0 0
6:53 pm 18:53 Partly Cloudy 73 22.8 57 13.9 57 57 S 12 19 30.09 1019 10 16.0934 0 0
7:53 pm 19:53 Sunny 70 21.1 58 14.4 66 66 S 10 17 30.09 1019 10 16.0934 0 0
8:53 pm 20:53 Mostly Cloudy 67 19.4 59 15 76 76 SSW 5 7 30.1 1019 10 16.0934 0 0
9:53 pm 21:53 Mostly Clear 66 18.9 59 15 78 78 S 5 7 30.1 1019 10 16.0934 0 0
10:53 pm 22:53 Mostly Cloudy 68 20 60 15.6 76 76 S 8 13 30.11 1020 10 16.0934 0 0
11:53 pm 23:53 Partly Cloudy 66 18.9 61 16.1 84 84 S 10 17 30.12 1020 10 16.0934 0 0

Powered by AerisWeather